Temp
80 80 80 80 79 79 78 78 78 77 77 77 77 78 80 82 85 85 83 83 80 80 79 79 79 79 79 79 80 80 80 80 80
79 80 80 79 79 78 78 78 77 77 77 76 77 77 79 84 80 81 83 82 79 80 79 79 79 79 80 79 80 80 79 79 79
79 79 79 78 78 78 78 77 77 77 76 76 76 77 79 84 81 81 80 78 79 79 79 78 79 78 79 79 79 79 79 79 79
79 79 79 78 78 77 77 77 76 76 76 76 75 76 77 85 85 85 82 77 78 78 78 78 78 78 78 78 78 79 79 78 78
78 79 79 78 77 77 76 76 76 75 75 75 75 77 78 84 83 83 81 77 78 78 77 77 77 78 78 78 78 78 78 78 78
82 79 78 78 77 76 76 75 75 74 74 74 75 78 85 84 83 81 76 76 77 77 76 76 76 77 77 77 76 76 76 76 77
84 79 77 78 76 76 75 74 74 79 82 80 77 84 84 84 82 80 75 76 76 76 75 75 75 75 75 75 75 75 75 75 75
84 81 81 81 78 80 78 77 82 82 82 82 83 84 84 83 81 77 75 76 76 76 75 75 75 74 74 74 74 74 74 74 74
83 83 82 81 82 80 81 80 80 80 82 84 83 84 83 83 81 77 74 75 76 76 75 75 74 74 74 73 73 73 73 73 73
82 82 81 81 81 81 80 80 80 81 82 83 83 83 83 83 81 78 73 74 75 75 75 75 74 74 73 73 73 72 72 72 72
81 80 80 80 81 81 81 80 80 79 81 80 81 80 81 80 80 79 76 73 74 75 75 75 74 74 73 73 72 72 72 72 71
80 80 80 80 81 82 81 81 80 79 79 79 79 79 80 79 78 78 78 75 70 72 73 74 74 74 74 73 72 72 71 71 71
80 79 79 80 80 79 78 77 77 77 77 77 78 78 78 79 78 77 77 76 77 70 69 71 72 73 73 73 72 72 71 71 71
79 78 77 78 77 78 77 77 77 76 76 76 77 78 77 77 78 77 74 72 74 75 66 67 68 70 71 72 72 72 71 71 71
77 78 77 77 75 76 76 76 77 77 76 76 75 76 76 76 77 77 77 74 72 74 73 74 70 67 68 69 70 70 70 70 70
65 74 73 75 75 75 76 76 73 72 76 73 72 73 77 76 74 75 76 72 73 73 73 75 75 72 66 66 67 68 69 69 69
71 68 70 75 75 74 74 72 72 72 73 72 72 67 69 71 72 73 73 73 73 72 73 74 73 72 72 65 63 64 66 67 68
62 64 69 74 72 71 71 71 70 68 68 70 70 64 64 69 71 71 72 72 72 73 73 73 72 71 71 67 66 62 64 65 66
58 60 63 66 65 65 67 68 69 68 67 69 70 72 72 66 64 69 70 70 71 70 70 70 70 70 69 65 61 61 62 63 64
56 56 56 55 59 64 67 69 70 69 69 66 67 67 69 72 67 64 65 66 66 69 69 68 68 69 68 67 65 59 61 61 62
MSLP
1016.65 1016.84 1017.03 1017.11 1017.39 1017.70 1017.74 1017.77 1017.88 1017.88 1017.80 1017.68 1017.65 1017.47 1017.07 1016.45 1016.40 1016.33 1016.59 1016.51 1016.65 1016.53 1016.40 1016.31 1016.17 1016.15 1016.04 1015.95 1015.78 1015.62 1015.51 1015.37 1015.22
1016.90 1017.00 1017.27 1017.46 1017.62 1017.91 1018.15 1018.22 1018.30 1018.33 1018.39 1018.34 1018.16 1017.93 1017.48 1017.10 1017.36 1017.28 1017.19 1017.31 1017.27 1017.19 1017.03 1016.85 1016.75 1016.69 1016.61 1016.60 1016.50 1016.35 1016.26 1016.17 1015.93
1017.22 1017.30 1017.46 1017.79 1017.97 1018.27 1018.49 1018.58 1018.75 1018.87 1018.85 1018.82 1018.76 1018.46 1017.94 1017.52 1017.88 1017.95 1018.16 1018.21 1017.98 1017.80 1017.69 1017.48 1017.35 1017.34 1017.18 1017.08 1017.04 1016.97 1016.90 1016.85 1016.74
1017.57 1017.64 1017.83 1018.03 1018.33 1018.67 1018.91 1018.98 1019.10 1019.16 1019.31 1019.29 1019.30 1018.99 1018.51 1018.04 1018.04 1018.04 1018.65 1018.91 1018.74 1018.56 1018.44 1018.27 1018.11 1017.95 1017.81 1017.70 1017.64 1017.54 1017.57 1017.43 1017.42
1017.89 1018.02 1018.21 1018.41 1018.62 1019.05 1019.26 1019.40 1019.49 1019.63 1019.68 1019.73 1019.66 1019.38 1018.94 1018.75 1018.81 1018.97 1019.49 1019.54 1019.40 1019.25 1019.21 1019.10 1018.92 1018.73 1018.59 1018.46 1018.40 1018.24 1018.18 1018.12 1018.03
1017.94 1018.13 1018.56 1018.75 1019.08 1019.38 1019.72 1019.78 1019.99 1019.97 1020.15 1020.17 1019.88 1019.26 1018.98 1019.22 1019.44 1019.93 1020.36 1020.08 1019.99 1019.99 1019.88 1019.81 1019.70 1019.61 1019.46 1019.34 1019.26 1019.07 1018.94 1018.80 1018.69
1017.81 1018.63 1018.94 1019.17 1019.47 1019.84 1020.13 1020.34 1020.23 1019.63 1019.85 1020.25 1019.80 1019.40 1019.48 1019.69 1020.07 1020.81 1020.93 1020.75 1020.62 1020.62 1020.55 1020.53 1020.55 1020.51 1020.48 1020.33 1020.11 1019.93 1019.75 1019.59 1019.47
1018.23 1018.81 1019.08 1019.30 1019.65 1020.04 1020.35 1020.50 1019.95 1019.82 1019.86 1019.94 1019.70 1019.68 1019.80 1020.15 1020.76 1021.57 1021.52 1021.33 1021.21 1021.16 1021.20 1021.21 1021.16 1021.14 1021.10 1021.05 1020.95 1020.89 1020.65 1020.46 1020.31
1018.03 1018.42 1018.81 1019.19 1019.45 1020.00 1020.23 1020.38 1020.52 1020.34 1020.06 1020.16 1020.05 1020.08 1020.11 1020.29 1021.18 1021.98 1022.01 1021.83 1021.70 1021.61 1021.68 1021.73 1021.75 1021.65 1021.64 1021.64 1021.61 1021.52 1021.43 1021.38 1021.22
1018.21 1018.62 1019.03 1019.40 1019.72 1020.00 1020.41 1020.62 1020.79 1020.65 1020.57 1020.62 1020.63 1020.63 1020.71 1020.80 1021.47 1022.16 1022.39 1022.26 1022.12 1022.11 1022.09 1022.09 1022.16 1022.24 1022.16 1022.09 1022.19 1022.03 1021.96 1021.96 1021.90
1018.50 1018.83 1019.29 1019.72 1019.87 1020.19 1020.29 1020.54 1020.83 1021.10 1021.10 1021.39 1021.39 1021.40 1021.45 1021.69 1021.84 1022.31 1022.86 1022.82 1022.65 1022.61 1022.63 1022.63 1022.64 1022.70 1022.78 1022.74 1022.70 1022.72 1022.51 1022.48 1022.50
1018.68 1018.91 1019.39 1019.80 1020.11 1020.24 1020.43 1020.79 1020.89 1021.20 1021.38 1021.54 1021.87 1021.91 1021.90 1022.04 1022.34 1022.62 1022.86 1023.31 1023.44 1023.17 1023.07 1023.03 1023.07 1023.09 1023.10 1023.16 1023.18 1023.23 1023.22 1023.09 1022.99
1018.77 1019.03 1019.32 1019.91 1020.30 1020.63 1020.79 1021.05 1021.09 1021.29 1021.57 1021.86 1022.12 1022.15 1022.38 1022.25 1022.59 1023.05 1023.15 1023.15 1023.35 1023.80 1023.80 1023.65 1023.61 1023.58 1023.51 1023.46 1023.50 1023.56 1023.66 1023.55 1023.45
1018.91 1019.16 1019.69 1020.11 1020.52 1020.69 1020.91 1021.08 1021.18 1021.47 1021.69 1021.96 1022.34 1022.53 1022.55 1022.55 1022.72 1022.86 1023.48 1023.83 1023.79 1023.80 1024.43 1024.34 1024.15 1024.04 1024.05 1023.99 1023.85 1023.85 1023.85 1023.86 1023.89
1019.17 1019.35 1019.88 1020.27 1020.63 1020.79 1020.93 1021.09 1021.19 1021.35 1021.66 1021.97 1022.37 1022.68 1022.87 1022.98 1022.86 1022.89 1023.21 1023.59 1023.82 1023.93 1024.13 1024.07 1024.37 1024.46 1024.32 1024.18 1024.05 1024.22 1024.23 1024.22 1024.18
1019.78 1019.84 1020.08 1020.26 1020.45 1020.74 1021.03 1021.11 1021.38 1021.63 1021.79 1022.03 1022.43 1022.72 1022.85 1022.78 1023.02 1023.20 1023.05 1023.57 1023.83 1024.06 1024.15 1024.04 1023.98 1024.23 1024.64 1024.64 1024.53 1024.42 1024.47 1024.47 1024.46
1019.64 1020.39 1020.36 1020.42 1020.44 1020.82 1021.27 1021.74 1021.37 1021.67 1022.02 1021.64 1021.67 1021.99 1022.67 1022.70 1022.97 1023.16 1023.21 1023.29 1023.65 1023.85 1023.87 1023.87 1024.14 1024.30 1024.38 1025.04 1024.99 1024.82 1024.67 1024.66 1024.53
1020.28 1020.60 1020.78 1020.71 1020.85 1021.26 1021.61 1021.86 1021.59 1021.52 1022.39 1022.44 1021.96 1021.84 1021.61 1022.03 1022.75 1022.92 1023.08 1023.37 1023.43 1023.58 1023.90 1024.13 1024.27 1024.42 1024.47 1024.70 1024.74 1025.02 1024.89 1024.74 1024.68
1020.23 1021.22 1021.61 1021.66 1021.95 1021.64 1021.82 1022.36 1022.08 1021.93 1021.84 1022.33 1022.36 1022.01 1021.73 1021.53 1021.91 1022.66 1023.04 1023.27 1023.17 1023.35 1023.81 1024.14 1024.46 1024.48 1024.64 1024.95 1025.18 1025.18 1025.09 1024.88 1024.78
1018.75 1021.09 1021.97 1022.19 1022.39 1021.97 1021.93 1022.11 1021.81 1022.06 1021.71 1021.83 1022.07 1022.08 1021.95 1021.85 1022.11 1021.66 1022.43 1023.47 1023.53 1023.49 1023.67 1024.02 1024.29 1024.40 1024.59 1024.58 1024.73 1025.25 1025.15 1024.98 1024.78
Wind_Speed
11 14 14 14 17 15 16 16 16 16 16 16 15 15 13 13 15 13 16 17 22 23 21 21 22 22 23 22 23 23 23 23 23
13 15 13 15 17 16 14 15 15 16 15 15 15 15 13 15 12 13 15 16 21 23 23 23 22 22 22 22 21 23 23 24 23
14 15 16 15 16 15 14 15 15 15 15 15 15 13 7 12 14 15 14 17 21 23 24 24 24 23 22 22 23 23 23 23 24
15 14 14 14 16 15 14 14 14 15 15 16 16 14 10 12 10 12 12 18 21 23 23 23 24 25 26 24 23 23 23 24 23
13 13 13 13 16 14 13 14 15 15 15 15 14 10 8 13 12 12 11 18 20 22 22 22 22 24 24 24 25 24 23 22 22
13 13 12 14 15 14 13 15 15 16 15 13 8 2 8 11 10 10 16 19 21 21 21 22 22 23 23 23 23 24 25 26 23
9 11 11 15 15 14 14 13 11 10 9 7 6 7 11 10 11 10 16 19 20 21 21 21 22 22 22 22 23 24 24 25 24
8 8 7 10 11 8 9 9 5 8 7 6 8 9 9 8 9 12 15 18 19 20 21 21 21 22 22 22 22 22 22 23 23
7 6 7 7 5 8 6 5 7 8 9 9 10 10 8 8 8 10 13 17 18 20 20 21 21 21 21 21 21 21 21 21 22
7 7 7 6 8 7 7 8 7 7 8 7 8 9 10 10 8 7 12 15 17 18 19 19 19 20 20 21 20 20 20 20 20
7 7 7 7 7 8 8 8 7 7 7 7 7 8 8 9 9 8 9 13 15 16 17 17 18 18 19 19 19 19 19 19 19
9 8 8 8 8 10 8 8 7 6 6 8 6 6 8 8 8 6 7 9 13 14 14 15 15 16 16 16 17 17 17 18 18
9 8 8 8 8 7 7 7 7 7 6 6 5 6 5 7 7 6 5 4 5 9 11 11 12 12 13 14 14 14 15 15 15
9 8 8 10 7 7 7 6 7 6 5 5 5 4 4 5 4 7 5 4 3 4 8 9 10 10 11 12 12 12 12 12 13
8 8 9 9 7 7 7 8 6 6 6 5 4 4 3 3 3 4 4 5 4 2 3 1 6 9 9 9 11 10 11 12 11
5 6 7 8 8 9 8 7 8 5 5 5 4 3 2 4 4 3 3 4 3 2 1 0 1 4 8 11 10 10 10 11 12
8 4 6 8 7 8 8 7 6 4 5 4 3 4 5 4 4 4 4 6 4 4 4 3 3 2 3 6 7 8 9 10 12
5 4 3 6 6 7 8 8 9 6 4 5 2 3 5 4 4 5 5 5 5 4 3 3 1 1 2 3 2 7 9 10 11
11 10 5 3 3 3 5 5 5 5 6 4 5 5 5 5 4 4 5 5 5 5 4 3 3 3 3 2 1 6 9 10 11
13 5 5 5 5 5 5 8 8 6 5 6 4 5 5 6 6 6 6 3 4 5 5 4 4 4 5 5 4 4 8 9 11
Wind_Direction
138 128 112 116 106 98 95 89 83 79 78 76 69 63 69 60 54 71 64 54 59 60 62 63 67 68 63 61 62 63 60 58 58
132 122 117 120 112 107 96 88 85 82 78 75 71 71 52 73 71 66 63 58 58 61 63 63 65 67 67 64 62 61 59 56 60
122 126 117 121 114 103 98 92 89 84 82 78 72 64 53 82 82 70 59 52 59 59 59 59 64 66 69 67 66 61 61 59 55
122 126 119 117 110 106 100 96 95 94 88 84 77 68 45 76 69 76 71 62 61 60 60 57 60 61 61 62 61 66 61 59 57
119 120 123 127 114 107 102 102 102 99 96 92 90 96 97 85 79 73 69 64 65 64 61 59 58 62 62 59 56 59 59 63 62
158 107 134 128 113 109 109 108 106 102 97 96 102 131 86 80 79 77 74 77 75 70 65 61 59 58 58 57 56 54 54 54 57
127 122 133 129 115 112 108 109 119 139 119 123 173 92 91 86 84 81 82 81 80 77 75 72 69 64 60 56 53 54 52 52 50
155 140 142 135 135 127 126 151 121 112 107 111 100 92 91 89 84 77 80 82 82 79 77 74 70 68 64 62 60 56 52 50 49
152 155 145 142 127 133 132 119 117 121 123 118 111 104 103 101 96 79 76 83 82 82 80 77 73 70 66 62 60 58 55 54 52
161 151 154 147 142 140 130 130 124 116 107 107 106 105 100 98 96 94 77 83 85 83 81 79 75 71 68 66 62 61 57 53 50
170 161 150 147 150 146 144 137 125 122 113 103 98 103 101 103 106 106 81 68 83 81 77 75 74 70 66 65 61 56 55 53 48
165 164 157 151 156 149 143 135 133 126 124 124 116 110 112 110 110 109 111 97 59 70 75 73 70 68 68 62 60 56 51 49 48
165 163 159 157 153 153 153 155 149 140 136 138 125 124 123 118 114 115 117 100 105 88 64 64 63 60 58 55 56 54 48 46 44
170 163 159 159 162 166 162 156 155 154 148 142 143 143 135 130 142 137 131 100 85 92 87 64 53 53 46 41 43 44 44 39 31
180 166 165 165 167 172 175 167 165 161 155 151 153 157 155 168 193 152 161 140 145 107 46 115 87 61 57 47 38 28 19 15 14
125 175 171 176 181 180 186 169 156 152 161 153 163 158 200 189 196 200 198 157 176 166 168 107 61 107 78 52 41 27 11 3 355
162 155 184 196 183 179 181 185 172 147 191 216 204 196 180 194 196 209 206 207 187 188 188 150 99 76 54 46 31 12 352 340 332
92 95 206 215 188 187 194 200 195 173 182 221 252 188 241 175 183 198 201 212 208 201 181 174 138 34 13 302 334 13 343 336 330
85 54 24 315 286 187 195 215 209 198 190 200 235 252 302 235 187 204 212 221 211 195 201 218 227 261 297 336 306 336 327 323 321
124 96 10 17 343 299 226 221 214 225 226 217 190 222 234 260 274 261 177 236 237 221 234 221 250 273 294 306 308 316 313 315 313